Time,TemperatureF,DewpointF,PressureIn,WindDirection,WindDirectionDegrees,WindSpeedMPH,WindSpeedGustMPH,Humidity,HourlyPrecipIn,Conditions,Clouds,dailyrainin,SolarRadiationWatts/m^2,SoftwareType,DateUTC
2013-06-07 00:00:00,52.8,50.0,30.02,West,279,0.0,2.0,90,0.05,,,0.00,0.00,VWS V14.00,2013-06-07 04:00:00,
2013-06-07 00:01:00,52.8,50.0,30.02,West,279,1.0,2.0,90,0.05,,,0.10,0.00,VWS V14.00,2013-06-07 04:01:00,
2013-06-07 00:02:00,52.8,50.0,30.02,West,279,0.0,1.0,90,0.05,,,0.00,0.00,VWS V14.00,2013-06-07 04:02:00,
2013-06-07 00:05:00,52.8,50.0,30.02,West,279,1.0,2.0,90,0.05,,,0.00,0.00,VWS V14.00,2013-06-07 04:05:00,
2013-06-07 00:07:00,52.8,50.0,30.01,West,279,0.0,2.0,90,0.04,,,0.00,0.00,VWS V14.00,2013-06-07 04:07:00,
2013-06-07 00:10:00,52.7,49.8,30.01,West,279,1.0,2.0,90,0.04,,,0.00,0.00,VWS V14.00,2013-06-07 04:10:00,
2013-06-07 00:12:00,52.7,49.8,30.01,West,279,0.0,2.0,90,0.04,,,0.00,0.00,VWS V14.00,2013-06-07 04:12:00,
2013-06-07 00:15:00,52.7,50.2,30.01,West,279,0.0,2.0,91,0.05,,,0.01,0.00,VWS V14.00,2013-06-07 04:15:00,
2013-06-07 00:17:00,52.6,49.8,30.01,West,279,0.0,0.0,90,0.05,,,0.01,0.00,VWS V14.00,2013-06-07 04:17:00,
2013-06-07 00:20:00,52.6,50.0,30.00,West,279,0.0,0.0,91,0.05,,,0.01,0.00,VWS V14.00,2013-06-07 04:20:00,
2013-06-07 00:22:00,52.6,50.0,30.01,West,279,0.0,0.0,91,0.04,,,0.01,0.00,VWS V14.00,2013-06-07 04:22:00,
2013-06-07 00:25:00,52.6,50.0,30.00,West,279,0.0,0.0,91,0.04,,,0.01,0.00,VWS V14.00,2013-06-07 04:25:00,
2013-06-07 00:27:00,52.5,50.0,30.00,West,279,0.0,0.0,91,0.04,,,0.01,0.00,VWS V14.00,2013-06-07 04:27:00,
2013-06-07 00:30:00,52.5,50.0,30.00,West,279,0.0,0.0,91,0.04,,,0.01,0.00,VWS V14.00,2013-06-07 04:30:00,
2013-06-07 00:32:00,52.5,50.0,30.00,West,279,0.0,0.0,91,0.03,,,0.01,0.00,VWS V14.00,2013-06-07 04:32:00,
2013-06-07 00:35:00,52.4,49.8,30.00,West,279,0.0,0.0,91,0.04,,,0.02,0.00,VWS V14.00,2013-06-07 04:35:00,
2013-06-07 00:37:00,52.4,49.8,30.00,West,279,0.0,0.0,91,0.04,,,0.02,0.00,VWS V14.00,2013-06-07 04:37:00,
2013-06-07 00:40:00,52.4,49.8,30.00,West,279,0.0,0.0,91,0.04,,,0.02,0.00,VWS V14.00,2013-06-07 04:40:00,
2013-06-07 00:42:00,52.4,49.8,30.00,West,279,0.0,0.0,91,0.04,,,0.02,0.00,VWS V14.00,2013-06-07 04:42:00,
2013-06-07 00:45:00,52.3,49.8,30.00,West,279,0.0,0.0,91,0.04,,,0.02,0.00,VWS V14.00,2013-06-07 04:45:00,
2013-06-07 00:47:00,52.3,49.8,29.99,West,279,0.0,0.0,91,0.03,,,0.02,0.00,VWS V14.00,2013-06-07 04:47:00,
2013-06-07 00:50:00,52.3,49.8,29.99,West,279,0.0,0.0,91,0.03,,,0.02,0.00,VWS V14.00,2013-06-07 04:50:00,
2013-06-07 00:52:00,52.3,49.8,29.99,West,279,0.0,0.0,91,0.03,,,0.02,0.00,VWS V14.00,2013-06-07 04:52:00,
2013-06-07 00:55:00,52.3,49.8,29.99,West,279,0.0,0.0,91,0.04,,,0.03,0.00,VWS V14.00,2013-06-07 04:55:00,
2013-06-07 00:58:00,52.3,49.8,29.99,West,279,1.0,1.0,91,0.03,,,0.03,0.00,VWS V14.00,2013-06-07 04:58:00,
2013-06-07 01:00:00,52.2,49.7,29.99,West,279,0.0,1.0,91,0.04,,,0.04,0.00,VWS V14.00,2013-06-07 05:00:00,
2013-06-07 01:02:00,52.2,49.7,29.99,West,279,0.0,0.0,91,0.04,,,0.04,0.00,VWS V14.00,2013-06-07 05:02:00,
2013-06-07 01:05:00,52.2,49.7,29.98,West,279,1.0,2.0,91,0.04,,,0.04,0.00,VWS V14.00,2013-06-07 05:05:00,
2013-06-07 01:08:00,52.2,49.7,29.98,West,279,1.0,2.0,91,0.04,,,0.04,0.00,VWS V14.00,2013-06-07 05:08:00,
2013-06-07 01:10:00,52.2,49.7,29.98,West,279,0.0,3.0,91,0.05,,,0.05,0.00,VWS V14.00,2013-06-07 05:10:00,
2013-06-07 01:13:00,52.2,49.7,29.98,West,279,0.0,1.0,91,0.05,,,0.05,0.00,VWS V14.00,2013-06-07 05:13:00,
2013-06-07 01:15:00,52.2,49.7,29.98,West,279,0.0,1.0,91,0.06,,,0.06,0.00,VWS V14.00,2013-06-07 05:15:00,
2013-06-07 01:18:00,52.2,49.7,29.98,West,279,0.0,0.0,91,0.05,,,0.06,0.00,VWS V14.00,2013-06-07 05:18:00,
2013-06-07 01:20:00,52.1,49.6,29.98,West,279,0.0,2.0,91,0.05,,,0.06,0.00,VWS V14.00,2013-06-07 05:20:00,
2013-06-07 01:23:00,52.1,49.6,29.98,West,279,0.0,1.0,91,0.05,,,0.06,0.00,VWS V14.00,2013-06-07 05:23:00,
2013-06-07 01:25:00,52.1,49.6,29.98,West,279,0.0,2.0,91,0.06,,,0.07,0.00,VWS V14.00,2013-06-07 05:25:00,
2013-06-07 01:28:00,52.1,49.6,29.98,West,279,0.0,1.0,91,0.06,,,0.07,0.00,VWS V14.00,2013-06-07 05:28:00,
2013-06-07 01:30:00,52.1,49.6,29.98,West,279,0.0,1.0,91,0.07,,,0.08,0.00,VWS V14.00,2013-06-07 05:30:00,
2013-06-07 01:33:00,52.1,49.6,29.98,West,279,0.0,0.0,91,0.07,,,0.08,0.00,VWS V14.00,2013-06-07 05:33:00,
2013-06-07 01:35:00,52.1,49.6,29.98,West,279,0.0,2.0,91,0.07,,,0.08,0.00,VWS V14.00,2013-06-07 05:35:00,
2013-06-07 01:38:00,52.1,49.6,29.97,West,279,0.0,1.0,91,0.07,,,0.09,0.00,VWS V14.00,2013-06-07 05:38:00,
2013-06-07 01:40:00,52.1,49.6,29.97,West,279,0.0,3.0,91,0.07,,,0.09,0.00,VWS V14.00,2013-06-07 05:40:00,
2013-06-07 01:43:00,52.1,49.6,29.97,West,279,0.0,0.0,91,0.07,,,0.09,0.00,VWS V14.00,2013-06-07 05:43:00,
2013-06-07 01:45:00,52.1,49.6,29.97,West,279,1.0,2.0,91,0.08,,,0.10,0.00,VWS V14.00,2013-06-07 05:45:00,
2013-06-07 01:48:00,52.1,49.6,29.97,West,279,0.0,4.0,91,0.08,,,0.10,0.00,VWS V14.00,2013-06-07 05:48:00,
2013-06-07 01:50:00,52.0,49.5,29.97,West,279,3.0,4.0,91,0.08,,,0.10,0.00,VWS V14.00,2013-06-07 05:50:00,
2013-06-07 01:53:00,52.1,49.6,29.97,West,279,2.0,4.0,91,0.08,,,0.10,0.00,VWS V14.00,2013-06-07 05:53:00,
2013-06-07 01:55:00,52.0,49.5,29.97,West,279,0.0,4.0,91,0.09,,,0.11,0.00,VWS V14.00,2013-06-07 05:55:00,
2013-06-07 01:58:00,52.0,49.8,29.97,WNW,296,0.0,5.0,92,0.09,,,0.12,0.00,VWS V14.00,2013-06-07 05:58:00,
2013-06-07 02:00:00,52.0,49.8,29.97,NW,309,4.0,5.0,92,0.09,,,0.12,0.00,VWS V14.00,2013-06-07 06:00:00,
2013-06-07 02:03:00,52.0,49.5,29.97,NW,312,2.0,5.0,91,0.09,,,0.13,0.00,VWS V14.00,2013-06-07 06:03:00,
2013-06-07 02:05:00,51.9,49.4,29.97,NW,312,0.0,5.0,91,0.09,,,0.13,0.00,VWS V14.00,2013-06-07 06:05:00,
2013-06-07 02:08:00,51.9,49.4,29.97,NW,312,0.0,0.0,91,0.10,,,0.14,0.00,VWS V14.00,2013-06-07 06:08:00,
2013-06-07 02:10:00,51.9,49.4,29.97,NW,312,0.0,0.0,91,0.11,,,0.15,0.00,VWS V14.00,2013-06-07 06:10:00,
2013-06-07 02:13:00,51.9,49.7,29.97,NW,312,0.0,3.0,92,0.10,,,0.15,0.00,VWS V14.00,2013-06-07 06:13:00,
2013-06-07 02:15:00,51.8,49.6,29.97,NW,312,0.0,3.0,92,0.11,,,0.16,0.00,VWS V14.00,2013-06-07 06:15:00,
2013-06-07 02:18:00,51.8,49.5,29.97,NW,312,0.0,3.0,92,0.10,,,0.16,0.00,VWS V14.00,2013-06-07 06:18:00,
2013-06-07 02:20:00,51.8,49.6,29.97,NW,312,0.0,3.0,92,0.11,,,0.17,0.00,VWS V14.00,2013-06-07 06:20:00,
2013-06-07 02:23:00,51.8,49.5,29.97,NW,312,0.0,1.0,92,0.12,,,0.18,0.00,VWS V14.00,2013-06-07 06:23:00,
2013-06-07 02:25:00,51.8,49.6,29.97,NW,312,0.0,1.0,92,0.12,,,0.18,0.00,VWS V14.00,2013-06-07 06:25:00,
2013-06-07 02:28:00,51.8,49.5,29.97,NW,312,0.0,2.0,92,0.11,,,0.18,0.00,VWS V14.00,2013-06-07 06:28:00,
2013-06-07 02:30:00,51.8,49.6,29.97,NW,312,0.0,2.0,92,0.12,,,0.19,0.00,VWS V14.00,2013-06-07 06:30:00,
2013-06-07 02:33:00,51.8,49.5,29.97,NW,312,0.0,1.0,92,0.11,,,0.19,0.00,VWS V14.00,2013-06-07 06:33:00,
2013-06-07 02:35:00,51.8,49.6,29.97,NW,312,0.0,1.0,92,0.12,,,0.20,0.00,VWS V14.00,2013-06-07 06:35:00,
2013-06-07 02:38:00,51.8,49.5,29.97,NW,312,0.0,0.0,92,0.12,,,0.20,0.00,VWS V14.00,2013-06-07 06:38:00,
2013-06-07 02:40:00,51.7,49.5,29.97,NW,312,0.0,2.0,92,0.12,,,0.20,0.00,VWS V14.00,2013-06-07 06:40:00,
2013-06-07 02:43:00,51.7,49.5,29.96,NW,312,0.0,1.0,92,0.11,,,0.20,0.00,VWS V14.00,2013-06-07 06:43:00,
2013-06-07 02:45:00,51.8,49.6,29.97,NW,312,0.0,1.0,92,0.11,,,0.20,0.00,VWS V14.00,2013-06-07 06:45:00,
2013-06-07 02:48:00,51.8,49.5,29.96,NW,312,0.0,2.0,92,0.10,,,0.20,0.00,VWS V14.00,2013-06-07 06:48:00,
2013-06-07 02:50:00,51.8,49.6,29.97,NW,312,0.0,2.0,92,0.10,,,0.20,0.00,VWS V14.00,2013-06-07 06:50:00,
2013-06-07 02:53:00,51.8,49.5,29.96,NW,312,0.0,1.0,92,0.11,,,0.21,0.00,VWS V14.00,2013-06-07 06:53:00,
2013-06-07 02:55:00,51.8,49.6,29.97,NW,312,0.0,1.0,92,0.11,,,0.21,0.00,VWS V14.00,2013-06-07 06:55:00,
2013-06-07 02:58:00,51.8,49.5,29.96,NW,312,0.0,0.0,92,0.11,,,0.22,0.00,VWS V14.00,2013-06-07 06:58:00,
2013-06-07 03:00:00,51.8,49.6,29.96,NW,312,0.0,0.0,92,0.11,,,0.22,0.00,VWS V14.00,2013-06-07 07:00:00,
2013-06-07 03:03:00,51.8,49.5,29.96,NW,312,1.0,2.0,92,0.10,,,0.22,0.00,VWS V14.00,2013-06-07 07:03:00,
2013-06-07 03:05:00,51.9,49.7,29.96,NW,312,0.0,3.0,92,0.10,,,0.22,0.00,VWS V14.00,2013-06-07 07:05:00,
2013-06-07 03:08:00,51.9,49.7,29.96,NW,312,0.0,1.0,92,0.10,,,0.23,0.00,VWS V14.00,2013-06-07 07:08:00,
2013-06-07 03:10:00,51.9,49.7,29.96,NW,312,0.0,1.0,92,0.10,,,0.23,0.00,VWS V14.00,2013-06-07 07:10:00,
2013-06-07 03:13:00,51.9,49.7,29.96,NW,312,0.0,3.0,92,0.08,,,0.23,0.00,VWS V14.00,2013-06-07 07:13:00,
2013-06-07 03:15:00,51.9,49.7,29.96,NW,312,0.0,3.0,92,0.09,,,0.24,0.00,VWS V14.00,2013-06-07 07:15:00,
2013-06-07 03:18:00,51.9,49.7,29.96,NW,312,0.0,3.0,92,0.08,,,0.24,0.00,VWS V14.00,2013-06-07 07:18:00,
2013-06-07 03:20:00,51.9,49.7,29.96,NW,312,0.0,3.0,92,0.08,,,0.24,0.00,VWS V14.00,2013-06-07 07:20:00,
2013-06-07 03:23:00,51.9,49.7,29.96,NW,312,1.0,4.0,92,0.07,,,0.24,0.00,VWS V14.00,2013-06-07 07:23:00,
2013-06-07 03:25:00,51.9,49.7,29.96,NW,312,0.0,4.0,92,0.08,,,0.25,0.00,VWS V14.00,2013-06-07 07:25:00,
2013-06-07 03:28:00,51.9,49.7,29.96,NW,312,0.0,1.0,92,0.07,,,0.25,0.00,VWS V14.00,2013-06-07 07:28:00,
2013-06-07 03:30:00,51.9,49.7,29.96,NW,312,0.0,2.0,92,0.07,,,0.25,0.00,VWS V14.00,2013-06-07 07:30:00,
2013-06-07 03:33:00,51.9,49.7,29.96,NW,312,0.0,2.0,92,0.07,,,0.26,0.00,VWS V14.00,2013-06-07 07:33:00,
2013-06-07 03:35:00,52.0,49.8,29.96,NW,312,0.0,2.0,92,0.07,,,0.26,0.00,VWS V14.00,2013-06-07 07:35:00,
2013-06-07 03:38:00,52.0,49.8,29.96,NW,312,0.0,1.0,92,0.06,,,0.26,0.00,VWS V14.00,2013-06-07 07:38:00,
2013-06-07 03:40:00,52.0,50.0,29.95,NW,312,0.0,1.0,93,0.06,,,0.26,0.00,VWS V14.00,2013-06-07 07:40:00,
2013-06-07 03:43:00,52.0,50.0,29.95,WNW,294,0.0,4.0,93,0.06,,,0.26,0.00,VWS V14.00,2013-06-07 07:43:00,
2013-06-07 03:45:00,52.1,50.1,29.95,South,175,0.0,6.0,93,0.06,,,0.26,0.00,VWS V14.00,2013-06-07 07:45:00,
2013-06-07 03:48:00,52.2,50.2,29.95,South,185,1.0,7.0,93,0.07,,,0.27,0.00,VWS V14.00,2013-06-07 07:48:00,
2013-06-07 03:50:00,52.3,50.3,29.95,South,184,0.0,7.0,93,0.07,,,0.27,0.00,VWS V14.00,2013-06-07 07:50:00,
2013-06-07 03:53:00,52.4,50.4,29.95,South,186,0.0,5.0,93,0.08,,,0.28,0.00,VWS V14.00,2013-06-07 07:53:00,
2013-06-07 03:55:00,52.4,50.4,29.95,South,188,0.0,5.0,93,0.08,,,0.28,0.00,VWS V14.00,2013-06-07 07:55:00,
2013-06-07 03:58:00,52.5,50.5,29.95,South,187,0.0,2.0,93,0.07,,,0.28,0.00,VWS V14.00,2013-06-07 07:58:00,
2013-06-07 04:00:00,52.6,50.6,29.95,South,186,0.0,2.0,93,0.07,,,0.28,0.00,VWS V14.00,2013-06-07 08:00:00,
2013-06-07 04:03:00,52.7,50.7,29.95,South,186,0.0,3.0,93,0.06,,,0.28,0.00,VWS V14.00,2013-06-07 08:03:00,
2013-06-07 04:05:00,52.7,50.7,29.95,South,186,0.0,3.0,93,0.07,,,0.29,0.00,VWS V14.00,2013-06-07 08:05:00,
2013-06-07 04:08:00,52.8,50.8,29.95,South,188,2.0,3.0,93,0.07,,,0.29,0.00,VWS V14.00,2013-06-07 08:08:00,
2013-06-07 04:10:00,52.8,50.8,29.95,South,175,3.0,4.0,93,0.07,,,0.29,0.00,VWS V14.00,2013-06-07 08:10:00,
2013-06-07 04:13:00,52.9,50.9,29.95,South,171,2.0,4.0,93,0.07,,,0.30,0.00,VWS V14.00,2013-06-07 08:13:00,
2013-06-07 04:15:00,52.9,50.9,29.95,South,184,0.0,6.0,93,0.07,,,0.30,0.00,VWS V14.00,2013-06-07 08:15:00,
2013-06-07 04:18:00,52.9,50.9,29.95,South,184,0.0,3.0,93,0.06,,,0.30,0.00,VWS V14.00,2013-06-07 08:18:00,
2013-06-07 04:20:00,52.9,50.9,29.95,South,178,0.0,3.0,93,0.06,,,0.30,0.00,VWS V14.00,2013-06-07 08:20:00,
2013-06-07 04:23:00,53.0,51.0,29.95,South,189,0.0,6.0,93,0.07,,,0.31,0.00,VWS V14.00,2013-06-07 08:23:00,
2013-06-07 04:25:00,53.0,51.0,29.95,South,183,2.0,6.0,93,0.08,,,0.32,0.00,VWS V14.00,2013-06-07 08:25:00,
2013-06-07 04:28:00,53.0,51.0,29.95,SSE,159,3.0,9.0,93,0.07,,,0.32,0.00,VWS V14.00,2013-06-07 08:28:00,
2013-06-07 04:30:00,52.9,50.9,29.95,South,175,6.0,9.0,93,0.08,,,0.33,0.00,VWS V14.00,2013-06-07 08:30:00,
2013-06-07 04:33:00,52.9,50.9,29.95,South,169,3.0,7.0,93,0.08,,,0.33,0.00,VWS V14.00,2013-06-07 08:33:00,
2013-06-07 04:35:00,52.9,50.9,29.95,SSE,162,4.0,7.0,93,0.09,,,0.34,0.00,VWS V14.00,2013-06-07 08:35:00,
2013-06-07 04:38:00,52.9,50.9,29.95,SW,219,4.0,5.0,93,0.08,,,0.34,0.00,VWS V14.00,2013-06-07 08:38:00,
2013-06-07 04:40:00,52.8,50.8,29.95,South,169,0.0,6.0,93,0.08,,,0.34,0.00,VWS V14.00,2013-06-07 08:40:00,
2013-06-07 04:44:00,52.8,50.8,29.95,SSE,147,3.0,4.0,93,0.09,,,0.35,0.00,VWS V14.00,2013-06-07 08:44:00,
2013-06-07 04:45:00,52.7,50.7,29.95,South,174,2.0,7.0,93,0.09,,,0.35,0.00,VWS V14.00,2013-06-07 08:45:00,
2013-06-07 04:49:00,52.6,50.6,29.95,South,180,2.0,9.0,93,0.10,,,0.36,0.00,VWS V14.00,2013-06-07 08:49:00,
2013-06-07 04:50:00,52.6,50.6,29.95,South,178,0.0,9.0,93,0.10,,,0.36,0.00,VWS V14.00,2013-06-07 08:50:00,
2013-06-07 04:54:00,52.5,50.5,29.95,South,171,0.0,6.0,93,0.09,,,0.36,0.00,VWS V14.00,2013-06-07 08:54:00,
2013-06-07 04:55:00,52.5,50.5,29.95,South,178,1.0,6.0,93,0.09,,,0.36,0.00,VWS V14.00,2013-06-07 08:55:00,
2013-06-07 04:59:00,52.4,50.4,29.95,South,175,2.0,6.0,93,0.08,,,0.36,0.00,VWS V14.00,2013-06-07 08:59:00,
2013-06-07 05:00:00,52.4,50.4,29.95,SSE,162,3.0,6.0,93,0.08,,,0.36,0.00,VWS V14.00,2013-06-07 09:00:00,
2013-06-07 05:04:00,52.3,50.3,29.95,SSE,167,2.0,6.0,93,0.08,,,0.36,0.00,VWS V14.00,2013-06-07 09:04:00,
2013-06-07 05:05:00,52.2,50.2,29.95,SSE,148,5.0,12.0,93,0.08,,,0.36,0.00,VWS V14.00,2013-06-07 09:05:00,
2013-06-07 05:09:00,52.1,50.1,29.96,South,169,0.0,6.0,93,0.08,,,0.37,0.00,VWS V14.00,2013-06-07 09:09:00,
2013-06-07 05:10:00,52.0,50.0,29.95,SSE,153,2.0,7.0,93,0.08,,,0.37,0.00,VWS V14.00,2013-06-07 09:10:00,
2013-06-07 05:14:00,51.9,49.9,29.96,South,190,2.0,10.0,93,0.08,,,0.37,0.00,VWS V14.00,2013-06-07 09:14:00,
2013-06-07 05:15:00,51.8,49.8,29.95,South,182,5.0,10.0,93,0.08,,,0.37,0.00,VWS V14.00,2013-06-07 09:15:00,
2013-06-07 05:19:00,51.7,49.8,29.95,South,173,2.0,7.0,93,0.07,,,0.37,0.00,VWS V14.00,2013-06-07 09:19:00,
2013-06-07 05:20:00,51.7,49.8,29.95,South,173,3.0,7.0,93,0.07,,,0.37,0.00,VWS V14.00,2013-06-07 09:20:00,
2013-06-07 05:24:00,51.6,49.7,29.96,South,173,2.0,4.0,93,0.07,,,0.37,0.00,VWS V14.00,2013-06-07 09:24:00,
2013-06-07 05:25:00,51.5,49.5,29.96,South,188,0.0,11.0,93,0.07,,,0.37,0.00,VWS V14.00,2013-06-07 09:25:00,
2013-06-07 05:29:00,51.4,49.5,29.96,SSE,166,4.0,7.0,93,0.05,,,0.37,0.00,VWS V14.00,2013-06-07 09:29:00,
2013-06-07 05:34:00,51.2,49.2,29.96,SSW,196,8.0,8.0,93,0.05,,,0.38,5.00,VWS V14.00,2013-06-07 09:34:00,
2013-06-07 05:35:00,51.2,49.2,29.96,SE,132,5.0,10.0,93,0.05,,,0.38,0.00,VWS V14.00,2013-06-07 09:35:00,
2013-06-07 05:39:00,51.1,49.2,29.96,SSE,165,0.0,7.0,93,0.04,,,0.38,5.00,VWS V14.00,2013-06-07 09:39:00,
2013-06-07 05:40:00,51.0,49.0,29.96,SSE,155,5.0,8.0,93,0.04,,,0.38,5.00,VWS V14.00,2013-06-07 09:40:00,
2013-06-07 05:44:00,50.8,48.8,29.96,South,175,0.0,9.0,93,0.04,,,0.38,5.00,VWS V14.00,2013-06-07 09:44:00,
2013-06-07 05:45:00,50.8,48.8,29.96,South,180,3.0,10.0,93,0.04,,,0.38,5.00,VWS V14.00,2013-06-07 09:45:00,
2013-06-07 05:49:00,50.7,48.8,29.96,South,173,2.0,7.0,93,0.03,,,0.38,5.00,VWS V14.00,2013-06-07 09:49:00,
2013-06-07 05:50:00,50.6,48.7,29.96,South,180,3.0,7.0,93,0.03,,,0.38,5.00,VWS V14.00,2013-06-07 09:50:00,
2013-06-07 05:54:00,50.5,48.6,29.96,SSE,155,4.0,8.0,93,0.02,,,0.38,9.00,VWS V14.00,2013-06-07 09:54:00,
2013-06-07 05:55:00,50.4,48.5,29.96,SSE,157,0.0,8.0,93,0.02,,,0.38,9.00,VWS V14.00,2013-06-07 09:55:00,
2013-06-07 05:59:00,50.3,48.4,29.96,South,174,0.0,5.0,93,0.02,,,0.38,7.00,VWS V14.00,2013-06-07 09:59:00,
2013-06-07 06:00:00,50.3,48.4,29.96,South,174,6.0,6.0,93,0.02,,,0.38,9.00,VWS V14.00,2013-06-07 10:00:00,
2013-06-07 06:04:00,50.2,48.3,29.96,South,179,5.0,6.0,93,0.03,,,0.39,11.00,VWS V14.00,2013-06-07 10:04:00,
2013-06-07 06:05:00,50.1,48.2,29.96,SSW,192,1.0,10.0,93,0.03,,,0.39,11.00,VWS V14.00,2013-06-07 10:05:00,
2013-06-07 06:09:00,50.1,48.2,29.96,SSE,153,3.0,11.0,93,0.03,,,0.39,11.00,VWS V14.00,2013-06-07 10:09:00,
2013-06-07 06:10:00,50.0,48.1,29.96,South,191,4.0,11.0,93,0.03,,,0.39,11.00,VWS V14.00,2013-06-07 10:10:00,
2013-06-07 06:14:00,50.0,48.1,29.96,SSW,198,2.0,8.0,93,0.02,,,0.39,11.00,VWS V14.00,2013-06-07 10:14:00,
2013-06-07 06:15:00,50.0,48.1,29.96,South,179,3.0,8.0,93,0.02,,,0.39,12.00,VWS V14.00,2013-06-07 10:15:00,
2013-06-07 06:19:00,49.9,48.0,29.96,South,177,0.0,6.0,93,0.02,,,0.39,14.00,VWS V14.00,2013-06-07 10:19:00,
2013-06-07 06:20:00,49.9,48.0,29.96,SSE,155,3.0,6.0,93,0.02,,,0.39,12.00,VWS V14.00,2013-06-07 10:20:00,
2013-06-07 06:24:00,49.8,47.9,29.96,South,182,0.0,5.0,93,0.02,,,0.39,18.00,VWS V14.00,2013-06-07 10:24:00,
2013-06-07 06:25:00,49.8,47.9,29.96,South,180,0.0,5.0,93,0.02,,,0.39,18.00,VWS V14.00,2013-06-07 10:25:00,
2013-06-07 06:29:00,49.8,47.9,29.96,South,183,1.0,5.0,93,0.02,,,0.39,16.00,VWS V14.00,2013-06-07 10:29:00,
2013-06-07 06:30:00,49.8,47.9,29.96,South,189,0.0,5.0,93,0.03,,,0.40,19.00,VWS V14.00,2013-06-07 10:30:00,
2013-06-07 06:34:00,49.8,47.9,29.96,South,184,1.0,6.0,93,0.02,,,0.40,33.00,VWS V14.00,2013-06-07 10:34:00,
2013-06-07 06:35:00,49.8,47.9,29.96,South,178,0.0,6.0,93,0.02,,,0.40,33.00,VWS V14.00,2013-06-07 10:35:00,
2013-06-07 06:39:00,49.7,47.8,29.96,South,176,3.0,6.0,93,0.02,,,0.40,30.00,VWS V14.00,2013-06-07 10:39:00,
2013-06-07 06:40:00,49.7,47.8,29.96,South,181,2.0,6.0,93,0.02,,,0.40,32.00,VWS V14.00,2013-06-07 10:40:00,
2013-06-07 06:44:00,49.7,47.8,29.96,SSE,168,3.0,7.0,93,0.02,,,0.40,19.00,VWS V14.00,2013-06-07 10:44:00,
2013-06-07 06:45:00,49.7,47.8,29.97,South,185,1.0,7.0,93,0.02,,,0.40,21.00,VWS V14.00,2013-06-07 10:45:00,
2013-06-07 06:49:00,49.7,47.8,29.97,WSW,246,0.0,5.0,93,0.02,,,0.40,21.00,VWS V14.00,2013-06-07 10:49:00,
2013-06-07 06:50:00,49.7,47.8,29.96,SW,227,4.0,7.0,93,0.02,,,0.40,21.00,VWS V14.00,2013-06-07 10:50:00,
2013-06-07 06:54:00,49.7,47.8,29.96,SSW,208,0.0,4.0,93,0.02,,,0.40,19.00,VWS V14.00,2013-06-07 10:54:00,
2013-06-07 06:55:00,49.6,47.7,29.96,SSW,207,0.0,4.0,93,0.02,,,0.40,18.00,VWS V14.00,2013-06-07 10:55:00,
2013-06-07 06:59:00,49.7,47.8,29.97,South,177,4.0,6.0,93,0.02,,,0.40,21.00,VWS V14.00,2013-06-07 10:59:00,
2013-06-07 07:00:00,49.6,47.7,29.97,South,190,2.0,6.0,93,0.02,,,0.40,23.00,VWS V14.00,2013-06-07 11:00:00,
2013-06-07 07:04:00,49.7,47.8,29.96,South,177,3.0,8.0,93,0.02,,,0.40,30.00,VWS V14.00,2013-06-07 11:04:00,
2013-06-07 07:05:00,49.7,47.8,29.96,SSE,155,1.0,8.0,93,0.02,,,0.40,33.00,VWS V14.00,2013-06-07 11:05:00,
2013-06-07 07:09:00,49.7,47.8,29.96,South,178,0.0,8.0,93,0.01,,,0.40,39.00,VWS V14.00,2013-06-07 11:09:00,
2013-06-07 07:10:00,49.7,47.8,29.96,South,185,5.0,8.0,93,0.01,,,0.40,37.00,VWS V14.00,2013-06-07 11:10:00,
2013-06-07 07:14:00,49.7,47.8,29.97,South,175,5.0,6.0,93,0.01,,,0.40,47.00,VWS V14.00,2013-06-07 11:14:00,
2013-06-07 07:15:00,49.7,47.8,29.97,South,186,0.0,6.0,93,0.01,,,0.40,47.00,VWS V14.00,2013-06-07 11:15:00,
2013-06-07 07:19:00,49.7,48.0,29.97,South,175,1.0,5.0,94,0.01,,,0.40,35.00,VWS V14.00,2013-06-07 11:19:00,
2013-06-07 07:20:00,49.7,48.0,29.97,South,178,0.0,5.0,94,0.01,,,0.40,33.00,VWS V14.00,2013-06-07 11:20:00,
2013-06-07 07:24:00,49.8,48.2,29.97,SSW,200,4.0,4.0,94,0.01,,,0.40,39.00,VWS V14.00,2013-06-07 11:24:00,
2013-06-07 07:25:00,49.8,48.2,29.97,South,183,4.0,5.0,94,0.01,,,0.40,37.00,VWS V14.00,2013-06-07 11:25:00,
2013-06-07 07:29:00,49.8,48.2,29.97,South,178,0.0,5.0,94,0.01,,,0.40,39.00,VWS V14.00,2013-06-07 11:29:00,
2013-06-07 07:30:00,49.8,48.2,29.97,South,184,0.0,5.0,94,0.01,,,0.40,37.00,VWS V14.00,2013-06-07 11:30:00,
2013-06-07 07:34:00,49.9,48.2,29.97,South,182,3.0,3.0,94,0.00,,,0.40,33.00,VWS V14.00,2013-06-07 11:34:00,
2013-06-07 07:35:00,49.9,48.2,29.97,South,181,2.0,5.0,94,0.00,,,0.40,35.00,VWS V14.00,2013-06-07 11:35:00,
2013-06-07 07:39:00,49.9,48.0,29.97,SSW,196,4.0,7.0,93,0.00,,,0.40,37.00,VWS V14.00,2013-06-07 11:39:00,
2013-06-07 07:40:00,49.9,48.0,29.97,SSW,213,6.0,7.0,93,0.00,,,0.40,37.00,VWS V14.00,2013-06-07 11:40:00,
2013-06-07 07:44:00,50.0,48.3,29.97,SSW,202,0.0,6.0,94,0.00,,,0.40,44.00,VWS V14.00,2013-06-07 11:44:00,
2013-06-07 07:45:00,50.0,48.3,29.97,South,179,2.0,6.0,94,0.00,,,0.40,44.00,VWS V14.00,2013-06-07 11:45:00,
2013-06-07 07:49:00,50.1,48.4,29.97,South,169,0.0,3.0,94,0.00,,,0.40,60.00,VWS V14.00,2013-06-07 11:49:00,
2013-06-07 07:50:00,50.1,48.4,29.97,SSE,167,0.0,3.0,94,0.00,,,0.40,69.00,VWS V14.00,2013-06-07 11:50:00,
2013-06-07 07:54:00,50.2,48.5,29.97,SSE,165,2.0,5.0,94,0.01,,,0.41,65.00,VWS V14.00,2013-06-07 11:54:00,
2013-06-07 07:55:00,50.2,48.5,29.97,SSE,162,3.0,7.0,94,0.01,,,0.41,65.00,VWS V14.00,2013-06-07 11:55:00,
2013-06-07 07:59:00,50.3,48.6,29.97,South,191,2.0,5.0,94,0.01,,,0.41,70.00,VWS V14.00,2013-06-07 11:59:00,
2013-06-07 08:00:00,50.3,48.6,29.97,SSW,207,10.0,12.0,94,0.02,,,0.42,76.00,VWS V14.00,2013-06-07 12:00:00,
2013-06-07 08:04:00,50.4,48.7,29.97,South,186,4.0,12.0,94,0.02,,,0.42,84.00,VWS V14.00,2013-06-07 12:04:00,
2013-06-07 08:05:00,50.4,48.7,29.97,South,181,4.0,12.0,94,0.02,,,0.42,90.00,VWS V14.00,2013-06-07 12:05:00,
2013-06-07 08:09:00,50.5,48.8,29.97,SSW,194,7.0,7.0,94,0.02,,,0.42,107.00,VWS V14.00,2013-06-07 12:09:00,
2013-06-07 08:10:00,50.6,48.9,29.97,SSW,198,3.0,10.0,94,0.02,,,0.42,98.00,VWS V14.00,2013-06-07 12:10:00,
2013-06-07 08:14:00,50.7,49.0,29.97,South,178,4.0,11.0,94,0.02,,,0.42,79.00,VWS V14.00,2013-06-07 12:14:00,
2013-06-07 08:15:00,50.7,49.0,29.97,South,189,2.0,11.0,94,0.02,,,0.42,83.00,VWS V14.00,2013-06-07 12:15:00,
2013-06-07 08:19:00,50.8,49.1,29.97,SSW,199,1.0,4.0,94,0.02,,,0.42,88.00,VWS V14.00,2013-06-07 12:19:00,
2013-06-07 08:20:00,50.8,49.1,29.97,South,188,3.0,8.0,94,0.02,,,0.42,91.00,VWS V14.00,2013-06-07 12:20:00,
2013-06-07 08:24:00,50.8,49.1,29.97,WSW,246,4.0,10.0,94,0.02,,,0.42,79.00,VWS V14.00,2013-06-07 12:24:00,
2013-06-07 08:25:00,50.8,49.1,29.97,SW,217,4.0,10.0,94,0.02,,,0.42,76.00,VWS V14.00,2013-06-07 12:25:00,
2013-06-07 08:29:00,50.8,49.1,29.97,SSW,202,2.0,7.0,94,0.03,,,0.43,74.00,VWS V14.00,2013-06-07 12:29:00,
2013-06-07 08:30:00,50.8,49.1,29.97,SW,219,4.0,7.0,94,0.03,,,0.43,79.00,VWS V14.00,2013-06-07 12:30:00,
2013-06-07 08:34:00,50.9,49.2,29.97,South,190,3.0,5.0,94,0.03,,,0.43,88.00,VWS V14.00,2013-06-07 12:34:00,
2013-06-07 08:35:00,50.9,49.2,29.97,SSW,196,1.0,5.0,94,0.03,,,0.43,86.00,VWS V14.00,2013-06-07 12:35:00,
2013-06-07 08:39:00,50.9,49.2,29.97,SSE,168,2.0,5.0,94,0.03,,,0.43,86.00,VWS V14.00,2013-06-07 12:39:00,
2013-06-07 08:40:00,50.9,49.2,29.97,SW,215,0.0,6.0,94,0.03,,,0.43,84.00,VWS V14.00,2013-06-07 12:40:00,
2013-06-07 08:44:00,51.0,49.3,29.97,SSW,205,5.0,12.0,94,0.03,,,0.43,97.00,VWS V14.00,2013-06-07 12:44:00,
2013-06-07 08:45:00,51.0,49.3,29.97,South,188,5.0,12.0,94,0.03,,,0.43,93.00,VWS V14.00,2013-06-07 12:45:00,
2013-06-07 08:49:00,51.0,49.3,29.97,SSW,199,4.0,9.0,94,0.03,,,0.43,84.00,VWS V14.00,2013-06-07 12:49:00,
2013-06-07 08:50:00,51.0,49.3,29.97,SSW,200,3.0,9.0,94,0.03,,,0.43,84.00,VWS V14.00,2013-06-07 12:50:00,
2013-06-07 08:54:00,51.0,49.3,29.97,SSW,206,0.0,9.0,94,0.03,,,0.43,93.00,VWS V14.00,2013-06-07 12:54:00,
2013-06-07 08:55:00,51.0,49.3,29.97,SSW,195,7.0,9.0,94,0.03,,,0.43,93.00,VWS V14.00,2013-06-07 12:55:00,
2013-06-07 08:59:00,51.1,49.4,29.97,SSW,202,3.0,9.0,94,0.02,,,0.43,93.00,VWS V14.00,2013-06-07 12:59:00,
2013-06-07 09:00:00,51.1,49.4,29.97,South,185,2.0,9.0,94,0.02,,,0.43,84.00,VWS V14.00,2013-06-07 13:00:00,
2013-06-07 09:04:00,51.0,49.3,29.97,SSW,208,3.0,8.0,94,0.01,,,0.43,81.00,VWS V14.00,2013-06-07 13:04:00,
2013-06-07 09:05:00,51.1,49.4,29.97,SSW,208,1.0,8.0,94,0.01,,,0.43,79.00,VWS V14.00,2013-06-07 13:05:00,
2013-06-07 09:15:00,51.1,49.4,29.97,South,174,2.0,2.0,94,0.01,,,0.43,86.00,VWS V14.00,2013-06-07 13:15:00,
2013-06-07 09:20:00,51.1,49.4,29.97,SSW,192,0.0,6.0,94,0.01,,,0.43,91.00,VWS V14.00,2013-06-07 13:20:00,
2013-06-07 09:25:00,51.2,49.5,29.97,South,184,0.0,5.0,94,0.02,,,0.44,111.00,VWS V14.00,2013-06-07 13:25:00,
2013-06-07 09:30:00,51.3,49.6,29.97,South,178,3.0,11.0,94,0.02,,,0.44,121.00,VWS V14.00,2013-06-07 13:30:00,
2013-06-07 09:35:00,51.4,49.7,29.97,SW,217,1.0,5.0,94,0.01,,,0.44,104.00,VWS V14.00,2013-06-07 13:35:00,
2013-06-07 09:40:00,51.5,49.8,29.97,WSW,252,4.0,5.0,94,0.01,,,0.44,100.00,VWS V14.00,2013-06-07 13:40:00,
2013-06-07 09:45:00,51.6,49.9,29.97,WSW,245,0.0,5.0,94,0.01,,,0.44,67.00,VWS V14.00,2013-06-07 13:45:00,
2013-06-07 09:50:00,51.7,50.0,29.97,South,185,2.0,7.0,94,0.01,,,0.44,88.00,VWS V14.00,2013-06-07 13:50:00,
2013-06-07 09:55:00,51.7,50.0,29.97,SSW,201,5.0,8.0,94,0.01,,,0.44,148.00,VWS V14.00,2013-06-07 13:55:00,
2013-06-07 10:00:00,51.9,50.2,29.97,South,187,1.0,6.0,94,0.01,,,0.44,165.00,VWS V14.00,2013-06-07 14:00:00,
2013-06-07 10:05:00,52.1,50.4,29.97,SSW,199,1.0,6.0,94,0.01,,,0.44,160.00,VWS V14.00,2013-06-07 14:05:00,
2013-06-07 10:10:00,52.3,50.6,29.96,SSW,205,0.0,5.0,94,0.01,,,0.44,202.00,VWS V14.00,2013-06-07 14:10:00,
2013-06-07 10:15:00,52.6,50.9,29.96,South,189,1.0,3.0,94,0.01,,,0.44,200.00,VWS V14.00,2013-06-07 14:15:00,
2013-06-07 10:20:00,52.8,51.1,29.96,SSW,194,4.0,6.0,94,0.01,,,0.44,255.00,VWS V14.00,2013-06-07 14:20:00,
2013-06-07 10:25:00,53.2,51.5,29.97,SSW,207,1.0,5.0,94,0.01,,,0.44,281.00,VWS V14.00,2013-06-07 14:25:00,
2013-06-07 10:30:00,53.5,51.8,29.97,SW,219,4.0,5.0,94,0.00,,,0.44,181.00,VWS V14.00,2013-06-07 14:30:00,
2013-06-07 10:35:00,53.7,52.0,29.97,SSW,205,2.0,7.0,94,0.00,,,0.44,209.00,VWS V14.00,2013-06-07 14:35:00,
2013-06-07 10:40:00,53.7,52.0,29.96,SSE,165,4.0,6.0,94,0.00,,,0.44,195.00,VWS V14.00,2013-06-07 14:40:00,
2013-06-07 10:45:00,53.8,52.1,29.96,South,182,0.0,4.0,94,0.00,,,0.44,172.00,VWS V14.00,2013-06-07 14:45:00,
2013-06-07 10:50:00,53.9,52.2,29.96,South,181,1.0,2.0,94,0.00,,,0.44,165.00,VWS V14.00,2013-06-07 14:50:00,
2013-06-07 10:55:00,53.8,51.8,29.96,SW,217,3.0,6.0,93,0.00,,,0.44,185.00,VWS V14.00,2013-06-07 14:55:00,
2013-06-07 11:00:00,53.9,52.2,29.97,SSW,201,6.0,6.0,94,0.00,,,0.44,183.00,VWS V14.00,2013-06-07 15:00:00,
2013-06-07 11:05:00,53.9,51.9,29.97,SW,224,2.0,7.0,93,0.00,,,0.44,183.00,VWS V14.00,2013-06-07 15:05:00,
2013-06-07 11:10:00,53.9,51.9,29.97,SSW,200,2.0,6.0,93,0.00,,,0.44,190.00,VWS V14.00,2013-06-07 15:10:00,
2013-06-07 11:15:00,53.9,51.9,29.97,SSE,164,2.0,6.0,93,0.00,,,0.44,181.00,VWS V14.00,2013-06-07 15:15:00,
2013-06-07 11:20:00,54.0,52.0,29.97,South,175,1.0,5.0,93,0.00,,,0.44,179.00,VWS V14.00,2013-06-07 15:20:00,
2013-06-07 11:25:00,54.1,52.1,29.97,SSW,211,5.0,6.0,93,0.00,,,0.44,220.00,VWS V14.00,2013-06-07 15:25:00,
2013-06-07 11:30:00,54.2,52.5,29.96,SSW,194,5.0,7.0,94,0.00,,,0.44,274.00,VWS V14.00,2013-06-07 15:30:00,
2013-06-07 11:35:00,54.4,52.4,29.96,South,180,1.0,5.0,93,0.00,,,0.44,192.00,VWS V14.00,2013-06-07 15:35:00,
2013-06-07 11:40:00,54.5,52.5,29.97,SSW,200,0.0,8.0,93,0.00,,,0.44,171.00,VWS V14.00,2013-06-07 15:40:00,
2013-06-07 11:45:00,54.5,52.5,29.96,South,191,0.0,4.0,93,0.01,,,0.45,214.00,VWS V14.00,2013-06-07 15:45:00,
2013-06-07 11:50:00,54.6,52.6,29.96,South,187,0.0,5.0,93,0.01,,,0.45,158.00,VWS V14.00,2013-06-07 15:50:00,
2013-06-07 11:55:00,54.7,52.7,29.96,South,187,0.0,2.0,93,0.01,,,0.45,148.00,VWS V14.00,2013-06-07 15:55:00,
2013-06-07 12:00:00,54.6,52.6,29.97,South,190,2.0,4.0,93,0.01,,,0.45,130.00,VWS V14.00,2013-06-07 16:00:00,
2013-06-07 12:05:00,54.6,52.6,29.97,South,179,4.0,8.0,93,0.01,,,0.45,221.00,VWS V14.00,2013-06-07 16:05:00,
2013-06-07 12:10:00,54.6,52.6,29.96,SSW,199,0.0,9.0,93,0.01,,,0.45,179.00,VWS V14.00,2013-06-07 16:10:00,
2013-06-07 12:15:00,54.7,52.7,29.96,South,188,0.0,4.0,93,0.01,,,0.45,221.00,VWS V14.00,2013-06-07 16:15:00,
2013-06-07 12:20:00,54.9,52.6,29.96,SSW,202,4.0,6.0,92,0.01,,,0.45,171.00,VWS V14.00,2013-06-07 16:20:00,
2013-06-07 12:25:00,54.8,52.5,29.96,SSW,213,0.0,9.0,92,0.01,,,0.45,155.00,VWS V14.00,2013-06-07 16:25:00,
2013-06-07 12:30:00,54.6,52.3,29.96,South,171,1.0,4.0,92,0.01,,,0.45,114.00,VWS V14.00,2013-06-07 16:30:00,
2013-06-07 12:35:00,54.5,52.2,29.96,SW,219,3.0,6.0,92,0.01,,,0.45,121.00,VWS V14.00,2013-06-07 16:35:00,
2013-06-07 12:40:00,54.4,52.1,29.95,SSW,209,0.0,5.0,92,0.01,,,0.45,135.00,VWS V14.00,2013-06-07 16:40:00,
2013-06-07 12:45:00,54.3,52.0,29.95,South,184,0.0,3.0,92,0.01,,,0.45,123.00,VWS V14.00,2013-06-07 16:45:00,
2013-06-07 12:51:00,54.2,51.9,29.95,SW,227,2.0,5.0,92,0.00,,,0.45,116.00,VWS V14.00,2013-06-07 16:51:00,
2013-06-07 12:56:00,54.1,51.5,29.95,SSW,194,4.0,6.0,91,0.00,,,0.45,125.00,VWS V14.00,2013-06-07 16:56:00,
2013-06-07 13:01:00,54.1,51.5,29.95,SW,235,0.0,4.0,91,0.00,,,0.45,153.00,VWS V14.00,2013-06-07 17:01:00,
2013-06-07 13:06:00,54.2,51.9,29.95,SW,229,0.0,4.0,92,0.00,,,0.45,151.00,VWS V14.00,2013-06-07 17:06:00,
2013-06-07 13:11:00,54.3,52.0,29.95,South,169,1.0,6.0,92,0.00,,,0.45,165.00,VWS V14.00,2013-06-07 17:11:00,
2013-06-07 13:16:00,54.4,51.8,29.95,South,172,2.0,3.0,91,0.00,,,0.45,185.00,VWS V14.00,2013-06-07 17:16:00,
2013-06-07 13:21:00,54.6,52.3,29.94,SSW,193,0.0,4.0,92,0.01,,,0.46,278.00,VWS V14.00,2013-06-07 17:21:00,
2013-06-07 13:26:00,54.8,52.5,29.94,SW,223,0.0,6.0,92,0.01,,,0.46,271.00,VWS V14.00,2013-06-07 17:26:00,
2013-06-07 13:31:00,55.0,52.7,29.95,SSW,207,3.0,6.0,92,0.02,,,0.47,250.00,VWS V14.00,2013-06-07 17:31:00,
2013-06-07 13:36:00,54.9,52.3,29.95,SW,217,1.0,5.0,91,0.02,,,0.47,200.00,VWS V14.00,2013-06-07 17:36:00,
2013-06-07 13:41:00,54.9,52.3,29.94,SSW,205,1.0,6.0,91,0.03,,,0.48,225.00,VWS V14.00,2013-06-07 17:41:00,
2013-06-07 13:46:00,54.9,52.3,29.94,SSW,202,0.0,1.0,91,0.03,,,0.48,176.00,VWS V14.00,2013-06-07 17:46:00,
2013-06-07 13:51:00,54.9,52.3,29.94,South,191,2.0,5.0,91,0.03,,,0.48,195.00,VWS V14.00,2013-06-07 17:51:00,
2013-06-07 13:56:00,54.9,52.3,29.94,South,191,0.0,2.0,91,0.04,,,0.49,200.00,VWS V14.00,2013-06-07 17:56:00,
2013-06-07 14:01:00,54.9,52.6,29.94,SSW,205,0.0,3.0,92,0.05,,,0.50,221.00,VWS V14.00,2013-06-07 18:01:00,
2013-06-07 14:06:00,55.0,52.7,29.94,SSW,205,0.0,2.0,92,0.05,,,0.50,202.00,VWS V14.00,2013-06-07 18:06:00,
2013-06-07 14:11:00,55.1,52.8,29.94,SSW,205,0.0,2.0,92,0.07,,,0.52,139.00,VWS V14.00,2013-06-07 18:11:00,
2013-06-07 14:16:00,55.1,52.8,29.94,SSW,205,0.0,1.0,92,0.07,,,0.52,144.00,VWS V14.00,2013-06-07 18:16:00,
2013-06-07 14:21:00,55.2,52.9,29.94,SSW,196,0.0,2.0,92,0.09,,,0.54,125.00,VWS V14.00,2013-06-07 18:21:00,
2013-06-07 14:26:00,55.2,52.9,29.94,SSW,195,2.0,2.0,92,0.08,,,0.54,118.00,VWS V14.00,2013-06-07 18:26:00,
2013-06-07 14:31:00,55.2,52.9,29.94,SSW,195,0.0,4.0,92,0.10,,,0.56,120.00,VWS V14.00,2013-06-07 18:31:00,
2013-06-07 14:36:00,55.2,52.9,29.94,SSW,195,0.0,0.0,92,0.10,,,0.57,134.00,VWS V14.00,2013-06-07 18:36:00,
2013-06-07 14:41:00,55.2,52.9,29.94,SSE,163,0.0,3.0,92,0.10,,,0.58,116.00,VWS V14.00,2013-06-07 18:41:00,
2013-06-07 14:46:00,55.2,52.9,29.94,SSE,165,0.0,3.0,92,0.10,,,0.58,95.00,VWS V14.00,2013-06-07 18:46:00,
2013-06-07 14:51:00,55.2,52.9,29.94,SSE,165,1.0,2.0,92,0.10,,,0.58,90.00,VWS V14.00,2013-06-07 18:51:00,
2013-06-07 14:56:00,55.2,52.9,29.94,SSE,165,1.0,1.0,92,0.09,,,0.58,123.00,VWS V14.00,2013-06-07 18:56:00,
2013-06-07 15:01:00,55.2,52.9,29.93,South,182,4.0,4.0,92,0.09,,,0.59,146.00,VWS V14.00,2013-06-07 19:01:00,
2013-06-07 15:06:00,55.2,52.9,29.93,South,170,2.0,2.0,92,0.09,,,0.59,146.00,VWS V14.00,2013-06-07 19:06:00,
2013-06-07 15:11:00,55.2,52.9,29.93,SSW,192,3.0,3.0,92,0.07,,,0.59,111.00,VWS V14.00,2013-06-07 19:11:00,
2013-06-07 15:16:00,55.2,52.9,29.93,SSW,202,4.0,6.0,92,0.08,,,0.60,125.00,VWS V14.00,2013-06-07 19:16:00,
2013-06-07 15:22:00,55.1,52.8,29.93,SSE,159,0.0,3.0,92,0.06,,,0.60,139.00,VWS V14.00,2013-06-07 19:22:00,
2013-06-07 15:27:00,55.1,52.8,29.93,South,188,2.0,3.0,92,0.06,,,0.60,123.00,VWS V14.00,2013-06-07 19:27:00,
2013-06-07 15:32:00,55.1,52.8,29.92,South,181,0.0,1.0,92,0.04,,,0.60,111.00,VWS V14.00,2013-06-07 19:32:00,
2013-06-07 15:37:00,55.0,52.7,29.92,South,181,0.0,3.0,92,0.03,,,0.60,109.00,VWS V14.00,2013-06-07 19:37:00,
2013-06-07 15:42:00,55.0,52.7,29.93,South,181,2.0,3.0,92,0.02,,,0.60,77.00,VWS V14.00,2013-06-07 19:42:00,
2013-06-07 15:47:00,55.0,52.7,29.93,South,181,0.0,1.0,92,0.02,,,0.60,79.00,VWS V14.00,2013-06-07 19:47:00,
2013-06-07 15:52:00,55.0,52.7,29.93,South,181,0.0,2.0,92,0.02,,,0.60,76.00,VWS V14.00,2013-06-07 19:52:00,
2013-06-07 15:57:00,55.0,52.7,29.93,South,182,0.0,3.0,92,0.03,,,0.61,72.00,VWS V14.00,2013-06-07 19:57:00,
2013-06-07 16:02:00,55.0,52.7,29.92,South,182,0.0,0.0,92,0.02,,,0.61,77.00,VWS V14.00,2013-06-07 20:02:00,
2013-06-07 16:07:00,54.9,52.6,29.92,South,182,0.0,0.0,92,0.03,,,0.62,77.00,VWS V14.00,2013-06-07 20:07:00,
2013-06-07 16:12:00,54.9,52.6,29.92,South,182,1.0,1.0,92,0.03,,,0.62,84.00,VWS V14.00,2013-06-07 20:12:00,
2013-06-07 16:17:00,54.9,52.6,29.92,South,182,0.0,0.0,92,0.02,,,0.62,84.00,VWS V14.00,2013-06-07 20:17:00,
2013-06-07 16:22:00,54.9,52.6,29.92,South,182,0.0,0.0,92,0.02,,,0.62,81.00,VWS V14.00,2013-06-07 20:22:00,
2013-06-07 16:27:00,54.9,52.6,29.92,South,182,0.0,1.0,92,0.02,,,0.62,88.00,VWS V14.00,2013-06-07 20:27:00,
2013-06-07 16:32:00,54.8,52.5,29.91,South,182,0.0,1.0,92,0.02,,,0.62,76.00,VWS V14.00,2013-06-07 20:32:00,
2013-06-07 16:37:00,54.7,52.4,29.91,South,181,0.0,2.0,92,0.02,,,0.62,56.00,VWS V14.00,2013-06-07 20:37:00,
2013-06-07 16:42:00,54.6,52.6,29.91,South,181,0.0,0.0,93,0.02,,,0.62,53.00,VWS V14.00,2013-06-07 20:42:00,
2013-06-07 16:47:00,54.5,52.5,29.91,South,175,2.0,2.0,93,0.03,,,0.63,60.00,VWS V14.00,2013-06-07 20:47:00,
2013-06-07 16:52:00,54.4,52.4,29.91,SSE,157,0.0,0.0,93,0.04,,,0.64,63.00,VWS V14.00,2013-06-07 20:52:00,
2013-06-07 16:57:00,54.4,52.4,29.91,SSE,157,0.0,2.0,93,0.04,,,0.65,46.00,VWS V14.00,2013-06-07 20:57:00,
2013-06-07 17:03:00,54.4,52.4,29.91,SSE,157,0.0,0.0,93,0.04,,,0.65,39.00,VWS V14.00,2013-06-07 21:03:00,
2013-06-07 17:08:00,54.4,52.4,29.91,SSE,157,0.0,0.0,93,0.04,,,0.66,33.00,VWS V14.00,2013-06-07 21:08:00,
2013-06-07 17:13:00,54.3,52.3,29.90,SSE,157,0.0,0.0,93,0.04,,,0.66,42.00,VWS V14.00,2013-06-07 21:13:00,
2013-06-07 17:18:00,54.2,52.2,29.90,SSE,157,0.0,0.0,93,0.05,,,0.67,56.00,VWS V14.00,2013-06-07 21:18:00,
2013-06-07 17:23:00,54.2,52.2,29.90,SSE,157,0.0,0.0,93,0.06,,,0.68,56.00,VWS V14.00,2013-06-07 21:23:00,
2013-06-07 17:28:00,54.1,52.1,29.90,SSE,157,0.0,2.0,93,0.06,,,0.68,53.00,VWS V14.00,2013-06-07 21:28:00,
2013-06-07 17:33:00,54.2,52.2,29.90,SSE,157,0.0,1.0,93,0.06,,,0.68,58.00,VWS V14.00,2013-06-07 21:33:00,
2013-06-07 17:39:00,54.1,52.1,29.90,SSE,157,1.0,2.0,93,0.07,,,0.69,63.00,VWS V14.00,2013-06-07 21:39:00,
2013-06-07 17:44:00,54.1,52.1,29.90,SSE,167,0.0,5.0,93,0.08,,,0.70,62.00,VWS V14.00,2013-06-07 21:44:00,
2013-06-07 17:49:00,54.1,52.1,29.90,SSE,168,0.0,2.0,93,0.07,,,0.70,69.00,VWS V14.00,2013-06-07 21:49:00,
2013-06-07 17:54:00,54.1,52.1,29.90,South,179,0.0,5.0,93,0.07,,,0.71,67.00,VWS V14.00,2013-06-07 21:54:00,
2013-06-07 17:59:00,54.1,52.1,29.90,South,191,8.0,8.0,93,0.08,,,0.72,58.00,VWS V14.00,2013-06-07 21:59:00,
2013-06-07 18:04:00,54.0,52.0,29.90,SSW,194,0.0,5.0,93,0.07,,,0.72,46.00,VWS V14.00,2013-06-07 22:04:00,
2013-06-07 18:09:00,53.9,51.9,29.89,SSE,168,3.0,6.0,93,0.06,,,0.72,46.00,VWS V14.00,2013-06-07 22:09:00,
2013-06-07 18:14:00,53.8,51.8,29.89,South,182,1.0,11.0,93,0.06,,,0.72,51.00,VWS V14.00,2013-06-07 22:14:00,
2013-06-07 18:19:00,53.7,51.7,29.90,SSW,195,1.0,5.0,93,0.06,,,0.72,42.00,VWS V14.00,2013-06-07 22:19:00,
2013-06-07 18:24:00,53.6,51.6,29.89,SSE,165,0.0,6.0,93,0.05,,,0.72,35.00,VWS V14.00,2013-06-07 22:24:00,
2013-06-07 18:29:00,53.5,51.5,29.89,SSW,206,2.0,5.0,93,0.05,,,0.73,33.00,VWS V14.00,2013-06-07 22:29:00,
2013-06-07 18:35:00,53.4,51.4,29.89,SSE,166,0.0,6.0,93,0.05,,,0.73,35.00,VWS V14.00,2013-06-07 22:35:00,
2013-06-07 18:40:00,53.4,51.4,29.89,South,190,1.0,6.0,93,0.05,,,0.73,40.00,VWS V14.00,2013-06-07 22:40:00,
2013-06-07 18:45:00,53.3,51.3,29.89,SSW,193,0.0,4.0,93,0.04,,,0.74,32.00,VWS V14.00,2013-06-07 22:45:00,
2013-06-07 18:50:00,53.3,51.3,29.89,South,169,0.0,1.0,93,0.04,,,0.74,23.00,VWS V14.00,2013-06-07 22:50:00,
2013-06-07 18:55:00,53.3,51.3,29.89,South,175,0.0,3.0,93,0.03,,,0.74,23.00,VWS V14.00,2013-06-07 22:55:00,
2013-06-07 19:00:00,53.3,51.3,29.88,South,175,0.0,2.0,93,0.02,,,0.74,21.00,VWS V14.00,2013-06-07 23:00:00,
2013-06-07 19:05:00,53.3,51.3,29.88,South,175,0.0,0.0,93,0.02,,,0.74,18.00,VWS V14.00,2013-06-07 23:05:00,
2013-06-07 19:10:00,53.3,51.3,29.88,South,175,0.0,1.0,93,0.02,,,0.74,18.00,VWS V14.00,2013-06-07 23:10:00,
2013-06-07 19:16:00,53.3,51.3,29.87,South,175,0.0,1.0,93,0.02,,,0.74,21.00,VWS V14.00,2013-06-07 23:16:00,
2013-06-07 19:21:00,53.2,51.2,29.88,South,175,0.0,0.0,93,0.02,,,0.74,14.00,VWS V14.00,2013-06-07 23:21:00,
2013-06-07 19:26:00,53.2,51.2,29.88,South,175,0.0,0.0,93,0.02,,,0.74,9.00,VWS V14.00,2013-06-07 23:26:00,
2013-06-07 19:31:00,53.2,51.2,29.88,South,175,0.0,0.0,93,0.02,,,0.74,7.00,VWS V14.00,2013-06-07 23:31:00,
2013-06-07 19:36:00,53.1,51.1,29.88,South,175,0.0,0.0,93,0.01,,,0.74,7.00,VWS V14.00,2013-06-07 23:36:00,
2013-06-07 19:41:00,53.1,51.1,29.88,South,175,0.0,2.0,93,0.01,,,0.74,7.00,VWS V14.00,2013-06-07 23:41:00,
2013-06-07 19:46:00,53.1,51.1,29.88,South,175,0.0,0.0,93,0.01,,,0.74,9.00,VWS V14.00,2013-06-07 23:46:00,
2013-06-07 19:51:00,53.1,51.1,29.87,South,175,0.0,0.0,93,0.01,,,0.75,9.00,VWS V14.00,2013-06-07 23:51:00,
2013-06-07 19:56:00,53.1,51.1,29.87,South,175,0.0,0.0,93,0.01,,,0.75,7.00,VWS V14.00,2013-06-07 23:56:00,
2013-06-07 20:01:00,53.0,51.0,29.87,South,175,0.0,2.0,93,0.02,,,0.76,0.00,VWS V14.00,2013-06-08 00:01:00,
2013-06-07 20:06:00,53.0,51.0,29.87,South,175,0.0,1.0,93,0.02,,,0.76,0.00,VWS V14.00,2013-06-08 00:06:00,
2013-06-07 20:11:00,53.0,51.0,29.87,South,175,0.0,0.0,93,0.02,,,0.76,0.00,VWS V14.00,2013-06-08 00:11:00,
2013-06-07 20:16:00,53.0,51.3,29.87,South,175,0.0,1.0,94,0.02,,,0.76,0.00,VWS V14.00,2013-06-08 00:16:00,
2013-06-07 20:21:00,53.0,51.3,29.87,South,175,0.0,1.0,94,0.02,,,0.76,0.00,VWS V14.00,2013-06-08 00:21:00,
2013-06-07 20:26:00,53.0,51.3,29.87,South,175,0.0,1.0,94,0.02,,,0.76,0.00,VWS V14.00,2013-06-08 00:26:00,
2013-06-07 20:31:00,52.9,51.2,29.86,South,175,0.0,2.0,94,0.02,,,0.76,0.00,VWS V14.00,2013-06-08 00:31:00,
2013-06-07 20:36:00,53.0,51.3,29.86,South,175,2.0,2.0,94,0.02,,,0.76,0.00,VWS V14.00,2013-06-08 00:36:00,
2013-06-07 20:41:00,52.9,51.2,29.86,South,175,0.0,2.0,94,0.02,,,0.76,0.00,VWS V14.00,2013-06-08 00:41:00,
2013-06-07 20:46:00,52.9,51.2,29.86,WNW,298,1.0,2.0,94,0.02,,,0.76,0.00,VWS V14.00,2013-06-08 00:46:00,
2013-06-07 20:51:00,53.0,51.3,29.86,WNW,298,0.0,3.0,94,0.02,,,0.76,0.00,VWS V14.00,2013-06-08 00:51:00,
2013-06-07 20:56:00,52.9,51.2,29.86,WNW,298,0.0,3.0,94,0.01,,,0.76,0.00,VWS V14.00,2013-06-08 00:56:00,
2013-06-07 21:01:00,52.9,51.2,29.86,WNW,298,0.0,2.0,94,0.01,,,0.76,0.00,VWS V14.00,2013-06-08 01:01:00,
2013-06-07 21:06:00,52.9,51.2,29.86,WNW,298,0.0,2.0,94,0.00,,,0.76,0.00,VWS V14.00,2013-06-08 01:06:00,
2013-06-07 21:11:00,52.8,51.1,29.86,WNW,298,1.0,3.0,94,0.00,,,0.76,0.00,VWS V14.00,2013-06-08 01:11:00,
2013-06-07 21:16:00,52.8,51.1,29.86,WNW,298,0.0,1.0,94,0.00,,,0.76,0.00,VWS V14.00,2013-06-08 01:16:00,
2013-06-07 21:21:00,52.8,51.1,29.86,WNW,298,1.0,1.0,94,0.00,,,0.76,0.00,VWS V14.00,2013-06-08 01:21:00,
2013-06-07 21:26:00,52.8,51.1,29.86,WNW,298,0.0,1.0,94,0.00,,,0.76,0.00,VWS V14.00,2013-06-08 01:26:00,
2013-06-07 21:31:00,52.7,51.0,29.86,WNW,298,0.0,2.0,94,0.00,,,0.76,0.00,VWS V14.00,2013-06-08 01:31:00,
2013-06-07 21:36:00,52.7,51.0,29.86,WNW,300,0.0,1.0,94,0.00,,,0.76,0.00,VWS V14.00,2013-06-08 01:36:00,
2013-06-07 21:41:00,52.7,51.0,29.86,NW,326,0.0,0.0,94,0.00,,,0.76,0.00,VWS V14.00,2013-06-08 01:41:00,
2013-06-07 21:46:00,52.7,51.0,29.86,NW,326,0.0,1.0,94,0.01,,,0.77,0.00,VWS V14.00,2013-06-08 01:46:00,
2013-06-07 21:51:00,52.7,51.0,29.86,NW,326,0.0,0.0,94,0.01,,,0.77,0.00,VWS V14.00,2013-06-08 01:51:00,
2013-06-07 21:57:00,52.6,50.9,29.86,NW,326,0.0,1.0,94,0.02,,,0.78,0.00,VWS V14.00,2013-06-08 01:57:00,
2013-06-07 22:02:00,52.7,51.0,29.86,NW,326,0.0,0.0,94,0.02,,,0.78,0.00,VWS V14.00,2013-06-08 02:02:00,
2013-06-07 22:07:00,52.7,51.0,29.86,NW,326,0.0,0.0,94,0.02,,,0.78,0.00,VWS V14.00,2013-06-08 02:07:00,
2013-06-07 22:12:00,52.6,50.9,29.86,NW,326,0.0,0.0,94,0.02,,,0.78,0.00,VWS V14.00,2013-06-08 02:12:00,
2013-06-07 22:17:00,52.7,51.0,29.86,NW,326,0.0,0.0,94,0.02,,,0.78,0.00,VWS V14.00,2013-06-08 02:17:00,
2013-06-07 22:23:00,52.7,51.0,29.86,NW,326,0.0,0.0,94,0.02,,,0.78,0.00,VWS V14.00,2013-06-08 02:23:00,
2013-06-07 22:28:00,52.6,50.9,29.86,NW,326,0.0,0.0,94,0.02,,,0.78,0.00,VWS V14.00,2013-06-08 02:28:00,
2013-06-07 22:33:00,52.7,51.0,29.86,NW,326,0.0,1.0,94,0.02,,,0.78,0.00,VWS V14.00,2013-06-08 02:33:00,
2013-06-07 22:38:00,52.7,51.0,29.85,NW,326,0.0,2.0,94,0.02,,,0.78,0.00,VWS V14.00,2013-06-08 02:38:00,
2013-06-07 22:43:00,52.7,51.0,29.85,NW,326,0.0,1.0,94,0.02,,,0.78,0.00,VWS V14.00,2013-06-08 02:43:00,
2013-06-07 22:48:00,52.7,51.0,29.85,NW,326,1.0,3.0,94,0.01,,,0.78,0.00,VWS V14.00,2013-06-08 02:48:00,
2013-06-07 22:53:00,52.7,51.0,29.85,NW,326,2.0,3.0,94,0.01,,,0.78,0.00,VWS V14.00,2013-06-08 02:53:00,
2013-06-07 22:58:00,52.7,51.0,29.85,NW,326,0.0,2.0,94,0.01,,,0.78,0.00,VWS V14.00,2013-06-08 02:58:00,
2013-06-07 23:03:00,52.7,51.0,29.84,NW,326,0.0,2.0,94,0.00,,,0.78,0.00,VWS V14.00,2013-06-08 03:03:00,
2013-06-07 23:08:00,52.7,51.0,29.84,NW,326,0.0,0.0,94,0.01,,,0.79,0.00,VWS V14.00,2013-06-08 03:08:00,
2013-06-07 23:13:00,52.6,50.9,29.84,NW,326,0.0,0.0,94,0.01,,,0.79,0.00,VWS V14.00,2013-06-08 03:13:00,
2013-06-07 23:18:00,52.6,50.9,29.84,NW,326,0.0,2.0,94,0.02,,,0.80,0.00,VWS V14.00,2013-06-08 03:18:00,
2013-06-07 23:23:00,52.6,50.9,29.84,NW,326,0.0,0.0,94,0.02,,,0.80,0.00,VWS V14.00,2013-06-08 03:23:00,
2013-06-07 23:28:00,52.6,50.9,29.83,NW,326,0.0,2.0,94,0.02,,,0.80,0.00,VWS V14.00,2013-06-08 03:28:00,
2013-06-07 23:33:00,52.6,50.9,29.83,NW,326,0.0,0.0,94,0.02,,,0.80,0.00,VWS V14.00,2013-06-08 03:33:00,
2013-06-07 23:38:00,52.6,50.9,29.83,NW,326,0.0,2.0,94,0.02,,,0.80,0.00,VWS V14.00,2013-06-08 03:38:00,
2013-06-07 23:43:00,52.6,50.9,29.83,NW,326,0.0,2.0,94,0.02,,,0.80,0.00,VWS V14.00,2013-06-08 03:43:00,
2013-06-07 23:48:00,52.6,50.9,29.83,NW,326,0.0,2.0,94,0.02,,,0.80,0.00,VWS V14.00,2013-06-08 03:48:00,
2013-06-07 23:53:00,52.6,50.9,29.83,NW,326,0.0,1.0,94,0.02,,,0.80,0.00,VWS V14.00,2013-06-08 03:53:00,
2013-06-07 23:58:00,52.6,50.9,29.83,NW,326,0.0,2.0,94,0.02,,,0.80,0.00,VWS V14.00,2013-06-08 03:58:00,